Skip Page Navigation
NASA JPL Caltech
NASA Logo - Jet Propulsion Laboratory + View the NASA Portal
+ Center for Near-Earth Object Studies
JPL Home Earth Solar System Stars & Galaxies Technology
JPL Solar System Dynamics
BODIES ORBITS EPHEMERIDES TOOLS PHYSICAL DATA DISCOVERY FAQ SITE MAP
JPL Small-Body Database Browser
Search: [ help ]  
233622 (2007 TJ236)
Classification: Main-belt Asteroid          SPK-ID: 2233622
Ephemeris | Orbit Diagram | Orbital Elements | Mission Design | Physical Parameters | Discovery Circumstances | Close-Approach Data ]

[ show orbit diagram ]
Orbital Elements at Epoch 2459000.5 (2020-May-31.0) TDB
Reference: JPL 9 (heliocentric ecliptic J2000)
 Element Value Uncertainty (1-sigma)   Units 
e .03315832955165614 7.2197e-08  
a 3.037122944319638 4.1429e-08 au
q 2.936417020842991 2.2189e-07 au
i 2.456969829685526 8.912e-06 deg
node 141.8234632711374 0.00016215 deg
peri 242.549278133354 0.00020622 deg
M 142.1725737020384 0.00012585 deg
tp 2458237.006558809882
(2018-Apr-28.50655881)
0.00067397 TDB
period 1933.267659657636
5.29
3.9557e-05
1.083e-07
d
yr
n .1862132220552185 3.8101e-09 deg/d
Q 3.137828867796285 4.2802e-08 au
  Orbit Determination Parameters
   # obs. used (total)      126  
   data-arc span      5883 days (16.11 yr)  
   first obs. used      2004-02-12  
   last obs. used      2020-03-22  
   planetary ephem.      DE431  
   SB-pert. ephem.      SB431-N16  
   condition code      0  
   norm. resid. RMS      .598  
   source      ORB  
   producer      Otto Matic  
   solution date      2020-Nov-12 01:52:25  

Additional Information
 Earth MOID = 1.93995 au 
 Jupiter MOID = 2.01518 au 
 T_jup = 3.239 
[ show covariance matrix ]

Ephemeris | Orbit Diagram | Orbital Elements | Mission Design | Physical Parameters | Discovery Circumstances | Close-Approach Data ]

Physical Parameter Table
Parameter Symbol Value Units Sigma Reference Notes
absolute magnitude H 16.6   n/a MPO418247  

233622 (2007 TJ236)          Discovered 2007-Oct-09 by Mt. Lemmon Survey at Mount Lemmon
Reference: 20100228/Numbers.arcLast Updated: 2010-03-03

[ show close-approach data ]
Alternate Designations
 2007 TJ236 = 2004 CS119 = 2008 YG156 
Ephemeris | Orbit Diagram | Orbital Elements | Mission Design | Physical Parameters | Discovery Circumstances | Close-Approach Data ]
ABOUT SSD CREDITS/AWARDS PRIVACY/COPYRIGHT GLOSSARY LINKS
FirstGov 2020-Nov-28 15:35 UT
(server date/time)  
NASA Home Page
Site Manager:   Ryan S. Park
Webmaster  Alan B. Chamberlin